星链-1605 (STARLINK-1605 )

导读 | 星芒AI

STARLINK-1605 是 SpaceX Starlink 卫星互联网项目中的第 1605 颗卫星,属于低轨卫星群,旨在提供全球高速互联网服务。该卫星于 2023 年发射,运行在约 550 公里的轨道高度,采用先进的通信技术,支持高速、低延迟的数据传输。Starlink 项目致力于为偏远地区提供稳定网络连接,提升全球互联网覆盖能力。STARLINK-1605 在星座中发挥关键作用,助力实现 SpaceX 的全球宽带愿景。

基本信息
目录编号:
46123
目录名称:
STARLINK-1605
国际标识:
2020-057G
轨道中心:
EARTH
卫星名称:
星链-1605
卫星全名:
星链-1605 (STARLINK-1605 )
卫星状态:
在轨 (已飞行1898 天)
发射日期:
2020-08-18 UTC
国别 :
美国 (US)
星等 :
--
轨道信息
数据来源 国际轨道数据
星历时间: 2025-10-29T20:00:03+0800
4小时前
查看轨道信息
半长轴: 6799.826km
偏心率: 0.0013383
轨道倾角: 53.048°
近地点辐角 146.558°
升交点赤经 129.041°
平近点角 212.587°
近地点: 412.59km
远地点: 430.792km
周期: 93.005分钟
每日圈数: 15.483037
详细信息
固有亮度:
5
最大亮度:
2.5
卫星平台:
Starlink V1.0
覆盖范围:
全球
运营商:
太空探索技术公司
运营商所在国:
美国
制造商(研发单位):
太空探索技术公司
制造商所在国:
美国
使用方式:
暂无
卫星简介
星链(Starlink)计划是由太空探索技术公司(SpaceX)提出的一个巨型低轨卫星互联网星座项目,计划在2019年至2024年间在太空搭建由约1.2万颗卫星组成的“星链”网络,其中1584颗将部署在地球上空550千米处的近地轨道,并从2020年开始工作。该卫星仍在工作。
2D轨道图
3D轨道图
轨道高度分析图
轨道倾角分析图
轨道综合分析图
查看轨道综合分析图